FW4383 Weather Reports


Display with metric or nautical units.
time (UTC)temp
F
wind
direction
speed
MPH
gust
MPH
rain 1hr
in
rain 24hr
in
rain mn
in
humidity
%
barometer
mb
20260903160037 51 247 0.0 4.0 0.00 0.28 0.01 98 1014.2
20260903154531 50 154 0.0 3.0 0.00 0.28 0.01 98 1014.2
20260903153142 50 145 0.0 4.0 0.00 0.28 0.01 98 1014.2
20260903151534 49 157 0.0 1.0 0.00 0.28 0.01 98 1014.3
20260903150035 49 157 0.0 0.0 0.00 0.28 0.01 98 1014.1
20260903144535 48 157 0.0 2.0 0.00 0.28 0.01 98 1014.0
20260903143035 48 157 1.0 4.0 0.00 0.28 0.01 98 1013.9
20260903141534 48 157 0.0 2.0 0.00 0.28 0.01 98 1013.8
20260903140037 48 157 0.0 2.0 0.00 0.28 0.01 98 1013.7
20260903133035 47 157 0.0 3.0 0.00 0.28 0.01 97 1013.5
20260903131535 47 157 1.0 3.0 0.00 0.28 0.01 97 1013.4
20260903130035 47 157 0.0 2.0 0.00 0.28 0.01 97 1013.3
20260903124534 47 157 0.0 1.0 0.00 0.28 0.01 97 1013.4
20260903123053 47 157 0.0 1.0 0.00 0.28 0.01 97 1013.5
20260903121534 48 157 0.0 0.0 0.00 0.28 0.01 97 1013.5
20260903120035 48 157 0.0 1.0 0.00 0.28 0.01 97 1013.4
20260903113035 49 157 1.0 4.0 0.00 0.28 0.01 97 1013.4
20260903111531 50 157 0.0 2.0 0.00 0.28 0.01 97 1013.2
20260903110033 50 157 0.0 3.0 0.00 0.28 0.01 97 1013.2
20260903104534 51 151 2.0 4.0 0.01 0.28 0.01 97 1013.0
20260903103031 51 112 0.0 2.0 0.01 0.28 0.01 97 1012.8
20260903101534 51 112 0.0 0.0 0.01 0.28 0.01 97 1012.9
20260903100153 51 112 0.0 2.0 0.01 0.28 0.00 97 1012.9
20260903094535 51 112 0.0 2.0 0.00 0.27 0.00 97 1012.9
20260903093035 51 112 0.0 3.0 0.00 0.27 0.00 97 1012.8
20260903091653 51 112 0.0 5.0 0.00 0.27 0.00 97 1012.8
20260903090143 51 112 0.0 0.0 0.00 0.27 0.00 97 1012.8
20260903084534 52 112 0.0 3.0 0.00 0.27 0.00 97 1012.9
20260903083033 52 112 0.0 3.0 0.00 0.27 0.00 97 1012.8
20260903081536 52 112 2.0 5.0 0.00 0.27 0.00 97 1012.7
20260903080035 52 115 3.0 7.0 0.00 0.27 0.00 96 1012.6
20260903074532 51 107 3.0 6.0 0.00 0.27 0.00 96 1012.5
20260903073035 52 159 0.0 4.0 0.00 0.27 0.00 96 1012.2
20260903071534 52 188 0.0 4.0 0.00 0.27 0.00 96 1012.2
20260903070035 53 197 1.0 4.0 0.00 0.27 0.00 96 1012.3
20260903064536 53 218 0.0 3.0 0.00 0.27 0.27 96 1012.3
20260903063034 53 143 1.0 4.0 0.00 0.27 0.27 95 1012.3
20260903061536 53 112 2.0 4.0 0.00 0.27 0.27 95 1012.4
20260903060035 53 156 0.0 3.0 0.00 0.27 0.27 95 1012.4
20260903054605 54 200 0.0 3.0 0.00 0.27 0.27 95 1012.2
20260903053143 54 177 0.0 4.0 0.00 0.27 0.27 94 1012.1
20260903051537 54 157 0.0 1.0 0.00 0.27 0.27 93 1012.2
20260903043030 55 218 1.0 5.0 0.00 0.27 0.27 91 1011.7
20260903041536 56 230 3.0 10.0 0.00 0.27 0.27 90 1011.3
20260903040109 56 235 3.0 9.0 0.00 0.27 0.27 90 1011.1
20260903034535 56 266 4.0 9.0 0.00 0.27 0.27 91 1011.1
20260903024606 57 225 0.0 1.0 0.15 0.27 0.25 93 1010.7
20260903023035 57 247 1.0 9.0 0.13 0.25 0.24 93 1010.6
20260903021534 58 276 3.0 9.0 0.12 0.24 0.22 93 1010.5
20260903020144 59 305 1.0 4.0 0.11 0.22 0.12 92 1010.3
20260903014535 59 315 0.0 0.0 0.01 0.12 0.12 92 1010.0
20260903011531 59 315 0.0 0.0 0.03 0.12 0.11 91 1009.9
20260903010106 59 315 0.0 2.0 0.03 0.11 0.11 90 1010.1
20260903004648 59 315 0.0 0.0 0.04 0.11 0.10 90 1010.3
20260903001534 60 321 0.0 3.0 0.02 0.09 0.08 89 1010.2
20260903000143 60 358 0.0 2.0 0.02 0.08 0.07 89 1010.1
20260902234535 61 349 1.0 4.0 0.01 0.07 0.07 88 1010.2
20260902233107 61 307 2.0 4.0 0.01 0.07 0.07 88 1010.2
20260902231534 61 8 0.0 4.0 0.02 0.07 0.06 90 1010.4
20260902230106 60 337 1.0 4.0 0.01 0.06 0.06 90 1010.3
20260902224606 59 355 1.0 4.0 0.02 0.06 0.06 90 1010.3
20260902221533 60 337 2.0 7.0 0.03 0.05 0.05 89 1010.2
20260902214533 60 336 2.0 4.0 0.03 0.04 0.03 88 1010.0
20260902211535 61 328 2.0 5.0 0.02 0.02 0.02 86 1010.0
20260902210034 61 7 1.0 4.0 0.02 0.02 0.01 84 1010.0
20260902203035 62 331 1.0 4.0 0.01 0.01 0.00 81 1010.2
20260902200032 63 353 1.0 4.0 0.00 0.00 0.00 78 1010.2
20260902194535 64 334 2.0 4.0 0.00 0.00 0.00 75 1010.1
20260902193037 64 248 0.0 3.0 0.00 0.00 0.00 71 1010.0
20260902191536 65 259 1.0 4.0 0.00 0.00 0.00 70 1009.9
20260902190035 65 36 0.0 3.0 0.00 0.00 0.00 69 1009.7
20260902184535 65 67 0.0 2.0 0.00 0.00 0.00 68 1009.7
20260902183037 65 40 1.0 4.0 0.00 0.00 0.00 68 1009.7
20260902181532 65 17 2.0 5.0 0.00 0.00 0.00 68 1009.7
20260902180036 66 357 1.0 4.0 0.00 0.00 0.00 66 1009.8
20260902174535 65 337 3.0 7.0 0.00 0.00 0.00 68 1009.9
20260902173037 64 332 3.0 6.0 0.00 0.00 0.00 69 1010.0
20260902171535 63 282 2.0 5.0 0.00 0.00 0.00 68 1010.2
20260902170036 64 272 2.0 4.0 0.00 0.00 0.00 66 1010.4
20260902164534 65 187 0.0 2.0 0.00 0.00 0.00 66 1010.5
20260902163030 65 86 1.0 5.0 0.00 0.00 0.00 70 1010.6
20260902161536 63 160 2.0 5.0 0.00 0.00 0.00 72 1011.0